Regional Weather Roundup
Issued by NWS

Home | Current Version | Previous Version | Text Only | Print | Product List | Glossary Off
Versions: 1 2 3 4 5 6 7 8 9 10 11 12 13 14 15 16 17 18 19 20 21 22 23 24 25 26 27 28 29 30 31 32 33 34 35 36 37 38 39 40 41 42 43 44 45 46 47 48 49 50

000
ASUS43 KDMX 240101
RWRIA

WEATHER ROUNDUP FOR IOWA
NATIONAL WEATHER SERVICE DES MOINES IA
800 PM CDT FRI JUN 23 2017

NOTE: "FAIR" INDICATES FEW OR NO CLOUDS BELOW 12,000 FEET WITH NO
SIGNIFICANT WEATHER AND/OR OBSTRUCTIONS TO VISIBILITY.

* - THESE STATIONS ARE NOT NWS STATIONS...THUS NOT UNDER NWS
QUALITY CONTROL.  THEY ALSO DO NOT REPORT WEATHER SUCH
AS PRECIPITATION OR FOG.

IAZ001>003-012>014-020>022-031>034-043>046-240200-
   NORTHWEST IOWA

CITY           SKY/WX    TMP DP  RH WIND       PRES   REMARKS
CARROLL *      PTCLDY    70  48  46 NW15      29.98R
CHEROKEE *     PTCLDY    66  47  50 NW9       30.00R
DENISON *      CLOUDY    68  48  49 NW14      30.02R
LE MARS *      MOSUNNY   70  45  40 NW9G20    30.01R
ORANGE CITY *  CLEAR     66  45  45 NW14G22   30.01R
SHELDON *      CLEAR     66  45  45 NW10G20   29.99R
SIOUX CITY     PTCLDY    69  46  43 NW12      30.01R
SPENCER        PTCLDY    65  49  56 NW14      29.98S
STORM LAKE *   PTCLDY    66  48  52 NW20G25   29.99R
$$

IAZ055>058-069>071-079>083-090>094-240200-
   SOUTHWEST IOWA

CITY           SKY/WX    TMP DP  RH WIND       PRES   REMARKS
ATLANTIC *     MOCLDY    70  52  52 NW7       30.00R
AUDUBON *      PTCLDY    70  50  49 NW8       30.01R
CLARINDA *     CLEAR     72  52  49 N8        30.02R
COUNCIL BLFS * CLOUDY    72  50  46 NW10G16   30.02R
CRESTON *      CLEAR     70  50  49 NW13      30.00R
HARLAN  *      CLOUDY    70  50  49 NW10      30.04R
LAMONI         PTCLDY    71  51  49 NW15      29.98R
RED OAK *      MOCLDY    70  52  52 NW8       30.01R
SHENANDOAH *   CLEAR     72  52  49 NW8       30.01R
$$

IAZ047>049-059>061-072>074-084-240200-
   CENTRAL IOWA

CITY           SKY/WX    TMP DP  RH WIND       PRES   REMARKS
AMES           PTCLDY    70  51  51 NW15G26   29.94S
ANKENY *       CLEAR     70  52  52 NW15G21   29.96R
BOONE *        CLEAR     68  48  49 NW12G20   29.95R
CHARITON *     MOCLDY    70  52  52 NW12      29.96R
DES MOINES     PTCLDY    71  50  47 NW13      29.95R
GRINNELL*      CLEAR     69  53  57 NW12      29.94R
KNOXVILLE *    MOCLDY    70  52  52 NW13      29.94R
MARSHALLTOWN   CLEAR     68  53  58 NW12      29.92R
NEWTON *       CLEAR     70  52  52 NW10G21   29.94R
PELLA *        PTCLDY    71  52  50 NW8G16    29.95R
PERRY *          N/A     68  48  49 NW7       29.96S
$$

IAZ004>006-015-016-023>025-035-036-240200-
   NORTH CENTRAL IOWA

CITY           SKY/WX    TMP DP  RH WIND       PRES   REMARKS
ALGONA *       CLEAR     68  50  52 NW15G24   29.95S
CLARION *        N/A     68  52  56 NW17      29.93S
ESTHERVILLE    PTCLDY    63  50  62 NW16G25   29.96R
FORT DODGE *   CLEAR     68  48  49 NW9G16    29.96S
MASON CITY     CLOUDY    66  53  63 NW13      29.94R
FOREST CITY *  MOCLDY    66  43  42 NW14G23   29.93S
WEBSTER CITY * PTCLDY    68  50  52 NW14G22   29.93R
IOWA FALLS *   CLOUDY    69  53  56 NW15      29.94R
$$

IAZ007>011-017>019-026>030-037>042-050>054-066-240200-
   NORTHEAST IOWA

CITY           SKY/WX    TMP DP  RH WIND       PRES   REMARKS
CEDAR RAPIDS   CLEAR     68  57  68 NW13      29.89R
CHARLES CITY * CLEAR     66  54  63 NW17      29.91R
CLINTON *      CLEAR     70  57  63 NW13      29.86R
DECORAH *      MOCLDY    66  55  68 NW10      29.86R
DUBUQUE        PTCLDY    68  54  60 NW15      29.86R
MONTICELLO *   CLEAR     70  55  60 W12       29.86R
OELWEIN *      MOCLDY    68  55  64 NW12G21   29.90R
WATERLOO       PTCLDY    69  54  58 NW10      29.89R
$$

IAZ064-065-067-068-078-240200-
   EAST CENTRAL IOWA

CITY           SKY/WX    TMP DP  RH WIND       PRES   REMARKS
DAVENPORT      CLEAR     70  55  59 NW13      29.87R
IOWA CITY      CLEAR     72  53  51 W15G22    29.91R
MT. PLEASANT * CLEAR     72  51  48 NW9       29.90R
MUSCATINE *    CLEAR     72  54  53 NW14G22   29.89R
QUAD CITIES    CLEAR     73  53  49 NW14G22   29.85R
$$

IAZ062-063-075>077-085>089-095>099-240200-
   SOUTHEAST IOWA

CITY           SKY/WX    TMP DP  RH WIND       PRES   REMARKS
BURLINGTON     CLEAR     73  54  51 NW8G21    29.89R
FAIRFIELD *    CLEAR     72  50  46 NW14G20   29.91R
FORT MADISON * CLEAR     73  54  49 NW13      29.91R
KEOKUK *       CLEAR     73  52  46 NW9G20    29.90R
OSKALOOSA *      N/A     70  52  52 NW8G16    29.94R
OTTUMWA        MOCLDY    72  53  51 NW8       29.93R
WASHINGTON *   CLEAR     72  55  56 NW13      29.91R
$$

ABBREVIATIONS USED IN REMARKS
   TC - TEMPERATURES IN CELSIUS
  WCI - WIND CHILL INDEX
   HX - HEAT INDEX
  VSB - VISIBILITY
$$




USA.gov is the U.S. government's official web portal to all federal, state and local government web resources and services.